| time (UTC) | temp F | wind direction | speed MPH | gust MPH | rain 1hr in | rain 24hr in | rain mn in | humidity % | barometer mb |
| 20260906152600 | 73 | 98 | 5.0 | 10.0 | 0.00 | 0.01 | 0.01 | 73 | 1014.3 |
| 20260906152032 | 73 | 90 | 4.0 | 11.0 | 0.00 | 0.01 | 0.01 | 74 | 1014.2 |
| 20260906151608 | 73 | 138 | 2.0 | 10.0 | 0.00 | 0.01 | 0.01 | 75 | 1014.3 |
| 20260906151502 | 73 | 128 | 3.0 | 10.0 | 0.00 | 0.01 | 0.01 | 76 | 1014.3 |
| 20260906151031 | 73 | 128 | 4.0 | 10.0 | 0.00 | 0.01 | 0.01 | 74 | 1014.2 |
| 20260906150600 | 73 | 111 | 4.0 | 11.0 | 0.00 | 0.01 | 0.01 | 74 | 1014.2 |
| 20260906150504 | 72 | 46 | 5.0 | 11.0 | 0.00 | 0.01 | 0.01 | 74 | 1014.1 |
| 20260906150027 | 72 | 113 | 6.0 | 11.0 | 0.00 | 0.01 | 0.01 | 74 | 1014.1 |
| 20260906145503 | 72 | 113 | 2.0 | 10.0 | 0.00 | 0.01 | 0.01 | 77 | 1014.0 |
| 20260906145038 | 72 | 88 | 4.0 | 10.0 | 0.00 | 0.01 | 0.01 | 76 | 1014.1 |
| 20260906144515 | 72 | 128 | 4.0 | 10.0 | 0.00 | 0.01 | 0.01 | 77 | 1014.1 |
| 20260906144043 | 72 | 144 | 3.0 | 6.0 | 0.00 | 0.01 | 0.01 | 77 | 1014.2 |
| 20260906143601 | 72 | 203 | 1.0 | 11.0 | 0.00 | 0.01 | 0.01 | 78 | 1014.2 |
| 20260906143502 | 72 | 175 | 2.0 | 11.0 | 0.00 | 0.01 | 0.01 | 78 | 1014.2 |
| 20260906143015 | 71 | 149 | 4.0 | 11.0 | 0.00 | 0.01 | 0.01 | 77 | 1014.1 |
| 20260906142551 | 71 | 157 | 4.0 | 9.0 | 0.00 | 0.01 | 0.01 | 80 | 1014.1 |
| 20260906142030 | 71 | 128 | 5.0 | 9.0 | 0.00 | 0.01 | 0.01 | 78 | 1014.1 |
| 20260906141557 | 71 | 110 | 5.0 | 9.0 | 0.00 | 0.01 | 0.01 | 78 | 1014.1 |
| 20260906141012 | 71 | 86 | 4.0 | 9.0 | 0.00 | 0.01 | 0.01 | 78 | 1014.0 |
| 20260906140528 | 70 | 98 | 4.0 | 9.0 | 0.00 | 0.01 | 0.01 | 80 | 1014.1 |
| 20260906140105 | 70 | 96 | 4.0 | 9.0 | 0.00 | 0.01 | 0.01 | 81 | 1014.1 |
| 20260906135534 | 70 | 133 | 4.0 | 9.0 | 0.00 | 0.01 | 0.01 | 80 | 1014.0 |
| 20260906135100 | 70 | 75 | 5.0 | 9.0 | 0.00 | 0.01 | 0.01 | 80 | 1014.0 |
| 20260906135003 | 70 | 120 | 6.0 | 9.0 | 0.00 | 0.01 | 0.01 | 79 | 1014.1 |
| 20260906134536 | 69 | 115 | 5.0 | 10.0 | 0.00 | 0.01 | 0.01 | 80 | 1014.1 |
| 20260906134049 | 69 | 155 | 5.0 | 10.0 | 0.00 | 0.01 | 0.01 | 81 | 1014.1 |
| 20260906133525 | 69 | 84 | 4.0 | 10.0 | 0.00 | 0.01 | 0.01 | 82 | 1014.1 |
| 20260906133121 | 69 | 119 | 5.0 | 10.0 | 0.00 | 0.01 | 0.01 | 83 | 1014.1 |
| 20260906132536 | 68 | 166 | 5.0 | 9.0 | 0.00 | 0.01 | 0.01 | 82 | 1014.0 |
| 20260906132003 | 68 | 161 | 5.0 | 12.0 | 0.00 | 0.01 | 0.01 | 83 | 1014.0 |
| 20260906131523 | 68 | 133 | 5.0 | 10.0 | 0.00 | 0.01 | 0.01 | 84 | 1014.0 |
| 20260906131053 | 68 | 104 | 3.0 | 8.0 | 0.00 | 0.01 | 0.01 | 85 | 1013.9 |
| 20260906130528 | 67 | 149 | 4.0 | 8.0 | 0.00 | 0.01 | 0.01 | 87 | 1013.7 |
| 20260906130112 | 66 | 128 | 4.0 | 6.0 | 0.00 | 0.01 | 0.01 | 89 | 1013.6 |
| 20260906130001 | 66 | 149 | 3.0 | 6.0 | 0.00 | 0.01 | 0.01 | 90 | 1013.6 |
| 20260906125535 | 65 | 147 | 3.0 | 6.0 | 0.00 | 0.01 | 0.01 | 93 | 1013.7 |
| 20260906125051 | 64 | 105 | 2.0 | 5.0 | 0.00 | 0.01 | 0.01 | 97 | 1013.7 |
| 20260906124521 | 64 | 104 | 1.0 | 3.0 | 0.00 | 0.01 | 0.01 | 99 | 1013.6 |
| 20260906124057 | 63 | 69 | 0.0 | 1.0 | 0.00 | 0.01 | 0.01 | 99 | 1013.6 |
| 20260906123535 | 62 | 69 | 0.0 | 2.0 | 0.00 | 0.01 | 0.01 | 99 | 1013.6 |
| 20260906123006 | 62 | 69 | 0.0 | 2.0 | 0.00 | 0.01 | 0.01 | 99 | 1013.5 |
| 20260906122519 | 62 | 63 | 0.0 | 1.0 | 0.00 | 0.01 | 0.01 | 99 | 1013.4 |
| 20260906122049 | 62 | 63 | 0.0 | 0.0 | 0.00 | 0.01 | 0.01 | 99 | 1013.4 |
| 20260906121522 | 61 | 133 | 0.0 | 0.0 | 0.00 | 0.01 | 0.01 | 99 | 1013.5 |
| 20260906121052 | 61 | 133 | 0.0 | 0.0 | 0.00 | 0.01 | 0.01 | 99 | 1013.4 |
| 20260906120522 | 60 | 133 | 0.0 | 0.0 | 0.00 | 0.01 | 0.01 | 99 | 1013.4 |
| 20260906120059 | 60 | 133 | 0.0 | 0.0 | 0.00 | 0.01 | 0.01 | 99 | 1013.5 |
| 20260906115513 | 59 | 133 | 0.0 | 0.0 | 0.00 | 0.01 | 0.01 | 99 | 1013.5 |
| 20260906115049 | 59 | 133 | 0.0 | 0.0 | 0.00 | 0.01 | 0.01 | 99 | 1013.3 |
| 20260906114519 | 59 | 133 | 0.0 | 0.0 | 0.00 | 0.01 | 0.01 | 98 | 1013.1 |
| 20260906114053 | 59 | 133 | 0.0 | 0.0 | 0.00 | 0.01 | 0.01 | 98 | 1013.1 |
| 20260906113525 | 59 | 133 | 0.0 | 0.0 | 0.00 | 0.01 | 0.01 | 98 | 1013.0 |
| 20260906113053 | 59 | 133 | 0.0 | 0.0 | 0.00 | 0.01 | 0.01 | 98 | 1013.0 |
| 20260906112525 | 59 | 133 | 0.0 | 0.0 | 0.00 | 0.01 | 0.01 | 99 | 1012.8 |
| 20260906112055 | 59 | 133 | 0.0 | 0.0 | 0.00 | 0.01 | 0.01 | 99 | 1012.8 |
| 20260906111528 | 59 | 133 | 0.0 | 0.0 | 0.00 | 0.01 | 0.01 | 99 | 1012.7 |
| 20260906111005 | 59 | 133 | 0.0 | 0.0 | 0.00 | 0.01 | 0.01 | 98 | 1012.7 |
| 20260906110541 | 58 | 133 | 0.0 | 0.0 | 0.00 | 0.01 | 0.01 | 98 | 1012.7 |
| 20260906110011 | 58 | 133 | 0.0 | 0.0 | 0.00 | 0.01 | 0.01 | 98 | 1012.7 |
| 20260906105546 | 58 | 133 | 0.0 | 0.0 | 0.00 | 0.01 | 0.01 | 98 | 1012.7 |
| 20260906105004 | 58 | 133 | 0.0 | 0.0 | 0.00 | 0.01 | 0.01 | 98 | 1012.7 |
| 20260906104541 | 58 | 133 | 0.0 | 0.0 | 0.00 | 0.01 | 0.01 | 98 | 1012.7 |
| 20260906104009 | 59 | 133 | 0.0 | 0.0 | 0.00 | 0.01 | 0.01 | 98 | 1012.4 |
| 20260906103543 | 59 | 133 | 0.0 | 0.0 | 0.00 | 0.01 | 0.01 | 98 | 1012.4 |
| 20260906103017 | 59 | 133 | 0.0 | 0.0 | 0.00 | 0.01 | 0.01 | 98 | 1012.4 |
| 20260906102551 | 59 | 133 | 0.0 | 0.0 | 0.00 | 0.01 | 0.01 | 98 | 1012.4 |
| 20260906102025 | 59 | 133 | 0.0 | 0.0 | 0.00 | 0.01 | 0.01 | 98 | 1012.3 |
| 20260906101600 | 59 | 133 | 0.0 | 0.0 | 0.00 | 0.01 | 0.01 | 98 | 1012.3 |
| 20260906101500 | 59 | 133 | 0.0 | 0.0 | 0.00 | 0.01 | 0.01 | 98 | 1012.3 |
| 20260906101033 | 59 | 133 | 0.0 | 0.0 | 0.00 | 0.01 | 0.01 | 98 | 1012.3 |
| 20260906100505 | 59 | 133 | 0.0 | 0.0 | 0.00 | 0.01 | 0.01 | 98 | 1012.2 |
| 20260906100039 | 59 | 133 | 0.0 | 0.0 | 0.00 | 0.01 | 0.01 | 98 | 1012.1 |
| 20260906095507 | 59 | 133 | 0.0 | 0.0 | 0.00 | 0.01 | 0.01 | 98 | 1012.1 |
| 20260906095041 | 59 | 133 | 0.0 | 0.0 | 0.00 | 0.01 | 0.01 | 98 | 1012.1 |
| 20260906094557 | 59 | 133 | 0.0 | 0.0 | 0.00 | 0.01 | 0.01 | 98 | 1012.1 |
| 20260906094029 | 59 | 133 | 0.0 | 0.0 | 0.00 | 0.01 | 0.01 | 98 | 1012.0 |
| 20260906093602 | 59 | 133 | 0.0 | 0.0 | 0.00 | 0.01 | 0.01 | 97 | 1012.0 |
| 20260906093503 | 60 | 133 | 0.0 | 0.0 | 0.00 | 0.01 | 0.01 | 97 | 1011.9 |
| 20260906093048 | 60 | 133 | 0.0 | 0.0 | 0.00 | 0.01 | 0.01 | 98 | 1011.8 |
| 20260906092512 | 60 | 133 | 0.0 | 0.0 | 0.00 | 0.01 | 0.01 | 98 | 1011.8 |
| 20260906092043 | 60 | 133 | 0.0 | 0.0 | 0.00 | 0.01 | 0.01 | 98 | 1011.8 |
| 20260906091557 | 60 | 133 | 0.0 | 0.0 | 0.01 | 0.01 | 0.01 | 98 | 1011.7 |
| 20260906091037 | 60 | 133 | 0.0 | 0.0 | 0.01 | 0.01 | 0.01 | 98 | 1011.6 |
| 20260906090510 | 60 | 133 | 0.0 | 0.0 | 0.01 | 0.01 | 0.01 | 98 | 1011.6 |
| 20260906090036 | 61 | 133 | 0.0 | 0.0 | 0.01 | 0.01 | 0.01 | 97 | 1011.6 |
| 20260906085509 | 61 | 133 | 0.0 | 0.0 | 0.01 | 0.01 | 0.01 | 98 | 1011.5 |
| 20260906085022 | 61 | 133 | 0.0 | 0.0 | 0.01 | 0.01 | 0.01 | 98 | 1011.5 |
| 20260906084558 | 61 | 128 | 0.0 | 0.0 | 0.01 | 0.01 | 0.01 | 98 | 1011.4 |
| 20260906084502 | 61 | 128 | 0.0 | 0.0 | 0.01 | 0.01 | 0.01 | 98 | 1011.4 |
| 20260906084036 | 61 | 128 | 0.0 | 0.0 | 0.01 | 0.01 | 0.01 | 98 | 1011.3 |
| 20260906083507 | 61 | 128 | 0.0 | 0.0 | 0.01 | 0.01 | 0.01 | 98 | 1011.3 |
| 20260906083041 | 61 | 128 | 0.0 | 0.0 | 0.01 | 0.01 | 0.01 | 98 | 1011.4 |
| 20260906082556 | 61 | 128 | 0.0 | 0.0 | 0.01 | 0.01 | 0.01 | 98 | 1011.4 |
| 20260906082028 | 61 | 128 | 0.0 | 0.0 | 0.01 | 0.01 | 0.01 | 98 | 1011.4 |
| 20260906081502 | 62 | 128 | 0.0 | 0.0 | 0.00 | 0.00 | 0.00 | 98 | 1011.4 |
| 20260906081038 | 62 | 128 | 0.0 | 0.0 | 0.00 | 0.00 | 0.00 | 98 | 1011.4 |
| 20260906080511 | 62 | 128 | 0.0 | 0.0 | 0.00 | 0.00 | 0.00 | 98 | 1011.3 |
| 20260906080027 | 62 | 128 | 0.0 | 0.0 | 0.00 | 0.00 | 0.00 | 97 | 1011.4 |
| 20260906075600 | 62 | 128 | 0.0 | 0.0 | 0.00 | 0.00 | 0.00 | 97 | 1011.4 |
| 20260906075503 | 62 | 128 | 0.0 | 0.0 | 0.00 | 0.00 | 0.00 | 97 | 1011.4 |
| 20260906075039 | 62 | 128 | 0.0 | 0.0 | 0.00 | 0.00 | 0.00 | 98 | 1011.4 |
| 20260906074511 | 62 | 128 | 0.0 | 0.0 | 0.00 | 0.00 | 0.00 | 98 | 1011.3 |
| 20260906074042 | 62 | 128 | 0.0 | 0.0 | 0.00 | 0.00 | 0.00 | 97 | 1011.3 |
| 20260906073559 | 62 | 128 | 0.0 | 0.0 | 0.00 | 0.00 | 0.00 | 97 | 1011.3 |
| 20260906073029 | 62 | 128 | 0.0 | 0.0 | 0.00 | 0.00 | 0.00 | 98 | 1011.4 |
| 20260906072558 | 62 | 128 | 0.0 | 0.0 | 0.00 | 0.00 | 0.00 | 97 | 1011.4 |
| 20260906072503 | 62 | 128 | 0.0 | 0.0 | 0.00 | 0.00 | 0.00 | 97 | 1011.4 |
| 20260906072034 | 62 | 128 | 0.0 | 0.0 | 0.00 | 0.00 | 0.00 | 97 | 1011.2 |
| 20260906071504 | 63 | 128 | 0.0 | 0.0 | 0.00 | 0.00 | 0.00 | 97 | 1011.3 |
| 20260906071032 | 63 | 128 | 0.0 | 0.0 | 0.00 | 0.00 | 0.00 | 97 | 1011.2 |
| 20260906070511 | 63 | 128 | 0.0 | 0.0 | 0.00 | 0.00 | 0.00 | 97 | 1011.0 |
| 20260906070043 | 63 | 128 | 0.0 | 0.0 | 0.00 | 0.00 | 0.00 | 97 | 1011.0 |
| 20260906065515 | 63 | 128 | 0.0 | 0.0 | 0.00 | 0.00 | 0.00 | 97 | 1011.1 |
| 20260906065049 | 63 | 128 | 0.0 | 0.0 | 0.00 | 0.00 | 0.00 | 97 | 1011.0 |
| 20260906064528 | 64 | 128 | 0.0 | 0.0 | 0.00 | 0.00 | 0.00 | 97 | 1011.1 |
| 20260906064052 | 64 | 128 | 0.0 | 0.0 | 0.00 | 0.00 | 0.00 | 97 | 1011.1 |
| 20260906063524 | 64 | 128 | 0.0 | 0.0 | 0.00 | 0.00 | 0.00 | 97 | 1011.1 |
| 20260906063059 | 64 | 128 | 0.0 | 0.0 | 0.00 | 0.00 | 0.00 | 97 | 1011.1 |
| 20260906062531 | 64 | 138 | 0.0 | 2.0 | 0.00 | 0.00 | 0.00 | 97 | 1011.0 |
| 20260906062006 | 64 | 138 | 0.0 | 3.0 | 0.00 | 0.00 | 0.00 | 97 | 1011.0 |
| 20260906061540 | 64 | 160 | 1.0 | 3.0 | 0.00 | 0.00 | 0.00 | 97 | 1010.9 |
| 20260906061010 | 65 | 152 | 1.0 | 3.0 | 0.00 | 0.00 | 0.00 | 97 | 1010.9 |
| 20260906060546 | 65 | 159 | 0.0 | 2.0 | 0.00 | 0.00 | 0.00 | 97 | 1010.9 |
| 20260906060105 | 65 | 157 | 0.0 | 0.0 | 0.00 | 0.00 | 0.00 | 97 | 1010.9 |
| 20260906060003 | 65 | 128 | 0.0 | 0.0 | 0.00 | 0.00 | 0.00 | 97 | 1010.9 |
| 20260906055532 | 65 | 128 | 0.0 | 0.0 | 0.00 | 0.00 | 0.00 | 97 | 1011.0 |
| 20260906055008 | 65 | 128 | 0.0 | 0.0 | 0.00 | 0.00 | 0.00 | 97 | 1011.0 |
| 20260906054544 | 65 | 128 | 0.0 | 0.0 | 0.00 | 0.00 | 0.00 | 98 | 1011.0 |
| 20260906054016 | 65 | 128 | 0.0 | 1.0 | 0.00 | 0.00 | 0.00 | 98 | 1011.0 |
| 20260906053530 | 65 | 128 | 0.0 | 1.0 | 0.00 | 0.00 | 0.00 | 97 | 1010.9 |
| 20260906053019 | 65 | 194 | 0.0 | 0.0 | 0.00 | 0.00 | 0.00 | 97 | 1010.9 |
| 20260906052548 | 65 | 194 | 0.0 | 0.0 | 0.00 | 0.00 | 0.00 | 97 | 1011.1 |
| 20260906052016 | 65 | 194 | 0.0 | 0.0 | 0.00 | 0.00 | 0.00 | 97 | 1011.0 |
| 20260906051555 | 66 | 194 | 0.0 | 0.0 | 0.00 | 0.00 | 0.00 | 97 | 1011.2 |
| 20260906051008 | 66 | 194 | 0.0 | 0.0 | 0.00 | 0.00 | 0.00 | 97 | 1011.1 |
| 20260906050542 | 66 | 194 | 0.0 | 0.0 | 0.00 | 0.00 | 0.00 | 97 | 1011.2 |
| 20260906050010 | 66 | 194 | 0.0 | 0.0 | 0.00 | 0.00 | 0.00 | 97 | 1011.1 |
| 20260906045540 | 66 | 194 | 0.0 | 0.0 | 0.00 | 0.00 | 0.00 | 97 | 1011.1 |
| 20260906045008 | 66 | 194 | 0.0 | 0.0 | 0.00 | 0.00 | 0.00 | 97 | 1011.1 |
| 20260906044544 | 67 | 194 | 0.0 | 0.0 | 0.00 | 0.00 | 0.00 | 97 | 1011.1 |
| 20260906044058 | 67 | 194 | 0.0 | 0.0 | 0.00 | 0.00 | 0.00 | 97 | 1011.2 |
| 20260906043530 | 67 | 194 | 0.0 | 0.0 | 0.00 | 0.00 | 0.00 | 97 | 1011.2 |
| 20260906043004 | 67 | 194 | 0.0 | 0.0 | 0.00 | 0.00 | 0.00 | 97 | 1011.3 |
| 20260906042536 | 67 | 194 | 0.0 | 0.0 | 0.00 | 0.00 | 0.00 | 97 | 1011.4 |
| 20260906042006 | 67 | 194 | 0.0 | 0.0 | 0.00 | 0.00 | 0.00 | 97 | 1011.4 |
| 20260906041546 | 68 | 194 | 0.0 | 0.0 | 0.00 | 0.00 | 0.00 | 97 | 1011.4 |
| 20260906041009 | 68 | 194 | 0.0 | 0.0 | 0.00 | 0.00 | 0.00 | 97 | 1011.4 |
| 20260906040542 | 68 | 194 | 0.0 | 0.0 | 0.00 | 0.00 | 0.00 | 97 | 1011.5 |
| 20260906040016 | 68 | 194 | 0.0 | 0.0 | 0.00 | 0.00 | 0.00 | 97 | 1011.4 |
| 20260906035543 | 68 | 194 | 0.0 | 0.0 | 0.00 | 0.00 | 0.00 | 96 | 1011.3 |
| 20260906035014 | 68 | 194 | 0.0 | 0.0 | 0.00 | 0.00 | 0.00 | 97 | 1011.4 |
| 20260906034533 | 69 | 194 | 0.0 | 0.0 | 0.00 | 0.00 | 0.00 | 97 | 1011.4 |
| 20260906034005 | 69 | 194 | 0.0 | 0.0 | 0.00 | 0.00 | 0.00 | 97 | 1011.4 |
| 20260906033546 | 69 | 194 | 0.0 | 0.0 | 0.00 | 0.00 | 0.00 | 97 | 1011.3 |
| 20260906033018 | 69 | 194 | 0.0 | 0.0 | 0.00 | 0.00 | 0.00 | 97 | 1011.4 |
| 20260906032545 | 69 | 194 | 0.0 | 0.0 | 0.00 | 0.00 | 0.00 | 97 | 1011.4 |
| 20260906032026 | 69 | 194 | 0.0 | 0.0 | 0.00 | 0.00 | 0.00 | 97 | 1011.5 |
| 20260906031558 | 69 | 194 | 0.0 | 0.0 | 0.00 | 0.00 | 0.00 | 97 | 1011.5 |
| 20260906031028 | 69 | 194 | 0.0 | 0.0 | 0.00 | 0.00 | 0.00 | 97 | 1011.4 |
| 20260906030558 | 69 | 194 | 0.0 | 0.0 | 0.00 | 0.00 | 0.00 | 97 | 1011.4 |
| 20260906030036 | 69 | 194 | 0.0 | 0.0 | 0.00 | 0.00 | 0.00 | 97 | 1011.4 |
| 20260906025509 | 69 | 194 | 0.0 | 0.0 | 0.00 | 0.00 | 0.00 | 97 | 1011.4 |
| 20260906025039 | 70 | 194 | 0.0 | 0.0 | 0.00 | 0.00 | 0.00 | 97 | 1011.3 |
| 20260906024512 | 70 | 194 | 0.0 | 0.0 | 0.00 | 0.00 | 0.00 | 97 | 1011.3 |
| 20260906024045 | 70 | 194 | 0.0 | 0.0 | 0.00 | 0.00 | 0.00 | 97 | 1011.2 |
| 20260906023518 | 70 | 194 | 0.0 | 0.0 | 0.00 | 0.00 | 0.00 | 97 | 1011.2 |
| 20260906023049 | 70 | 194 | 0.0 | 0.0 | 0.00 | 0.00 | 0.00 | 97 | 1011.3 |
| 20260906022529 | 70 | 194 | 0.0 | 0.0 | 0.00 | 0.00 | 0.00 | 97 | 1011.1 |
| 20260906022043 | 70 | 194 | 0.0 | 0.0 | 0.00 | 0.00 | 0.00 | 97 | 1011.0 |
| 20260906021600 | 70 | 194 | 0.0 | 0.0 | 0.00 | 0.00 | 0.00 | 96 | 1011.0 |
| 20260906021029 | 70 | 194 | 0.0 | 0.0 | 0.00 | 0.00 | 0.00 | 96 | 1011.0 |
| 20260906020504 | 70 | 194 | 0.0 | 0.0 | 0.00 | 0.00 | 0.00 | 96 | 1011.0 |
| 20260906020036 | 70 | 194 | 0.0 | 0.0 | 0.00 | 0.00 | 0.00 | 96 | 1011.0 |
| 20260906015509 | 70 | 194 | 0.0 | 1.0 | 0.00 | 0.00 | 0.00 | 96 | 1010.9 |
| 20260906015044 | 70 | 194 | 0.0 | 1.0 | 0.00 | 0.00 | 0.00 | 95 | 1010.8 |
| 20260906014521 | 70 | 194 | 0.0 | 2.0 | 0.00 | 0.00 | 0.00 | 95 | 1010.8 |
| 20260906014036 | 70 | 194 | 0.0 | 2.0 | 0.00 | 0.00 | 0.00 | 95 | 1010.8 |
| 20260906013510 | 71 | 194 | 0.0 | 2.0 | 0.00 | 0.00 | 0.00 | 95 | 1010.8 |
| 20260906013040 | 71 | 194 | 0.0 | 2.0 | 0.00 | 0.00 | 0.00 | 95 | 1010.7 |
| 20260906012512 | 71 | 128 | 0.0 | 1.0 | 0.00 | 0.00 | 0.00 | 95 | 1010.6 |
| 20260906012045 | 71 | 128 | 0.0 | 0.0 | 0.00 | 0.00 | 0.00 | 95 | 1010.6 |
| 20260906011519 | 71 | 128 | 0.0 | 1.0 | 0.00 | 0.00 | 0.00 | 95 | 1010.4 |
| 20260906011048 | 71 | 128 | 0.0 | 1.0 | 0.00 | 0.00 | 0.00 | 95 | 1010.3 |
| 20260906010527 | 71 | 128 | 0.0 | 3.0 | 0.00 | 0.00 | 0.00 | 95 | 1010.3 |
| 20260906010059 | 71 | 128 | 1.0 | 4.0 | 0.00 | 0.00 | 0.00 | 95 | 1010.3 |
| 20260906010001 | 71 | 128 | 1.0 | 4.0 | 0.00 | 0.00 | 0.00 | 95 | 1010.3 |
| 20260906005537 | 71 | 155 | 0.0 | 4.0 | 0.00 | 0.00 | 0.00 | 95 | 1010.2 |
| 20260906005007 | 71 | 225 | 0.0 | 0.0 | 0.00 | 0.00 | 0.00 | 95 | 1010.1 |
| 20260906004542 | 71 | 313 | 0.0 | 0.0 | 0.00 | 0.00 | 0.00 | 95 | 1010.0 |
| 20260906004053 | 71 | 313 | 0.0 | 0.0 | 0.00 | 0.00 | 0.00 | 94 | 1009.9 |
| 20260906003524 | 71 | 313 | 0.0 | 1.0 | 0.00 | 0.00 | 0.00 | 94 | 1010.0 |
| 20260906003057 | 71 | 313 | 0.0 | 1.0 | 0.00 | 0.00 | 0.00 | 93 | 1009.9 |
| 20260906002533 | 72 | 313 | 0.0 | 0.0 | 0.00 | 0.00 | 0.00 | 93 | 1009.9 |
| 20260906002009 | 72 | 313 | 0.0 | 1.0 | 0.00 | 0.00 | 0.00 | 93 | 1009.8 |
| 20260906001546 | 72 | 313 | 0.0 | 2.0 | 0.00 | 0.00 | 0.00 | 93 | 1009.9 |
| 20260906001018 | 72 | 313 | 0.0 | 2.0 | 0.00 | 0.00 | 0.00 | 92 | 1009.9 |
| 20260906000533 | 72 | 313 | 0.0 | 2.0 | 0.00 | 0.00 | 0.00 | 91 | 1009.8 |
| 20260906000007 | 73 | 284 | 0.0 | 0.0 | 0.00 | 0.00 | 0.00 | 91 | 1009.7 |
| 20260905235543 | 73 | 284 | 0.0 | 0.0 | 0.00 | 0.00 | 0.00 | 90 | 1009.6 |
| 20260905235017 | 73 | 284 | 0.0 | 0.0 | 0.00 | 0.00 | 0.00 | 89 | 1009.6 |
| 20260905234551 | 74 | 284 | 0.0 | 0.0 | 0.00 | 0.00 | 0.00 | 89 | 1009.7 |
| 20260905234007 | 74 | 284 | 0.0 | 0.0 | 0.00 | 0.00 | 0.00 | 88 | 1009.7 |
| 20260905233539 | 74 | 284 | 0.0 | 0.0 | 0.00 | 0.00 | 0.00 | 87 | 1009.6 |
| 20260905233011 | 75 | 284 | 0.0 | 0.0 | 0.00 | 0.00 | 0.00 | 86 | 1009.5 |
| 20260905232547 | 75 | 284 | 0.0 | 0.0 | 0.00 | 0.00 | 0.00 | 86 | 1009.5 |
| 20260905232017 | 76 | 284 | 0.0 | 0.0 | 0.00 | 0.00 | 0.00 | 84 | 1009.6 |
| 20260905231554 | 76 | 284 | 0.0 | 0.0 | 0.00 | 0.00 | 0.00 | 83 | 1009.6 |
| 20260905231004 | 77 | 284 | 0.0 | 0.0 | 0.00 | 0.00 | 0.00 | 82 | 1009.6 |
| 20260905230541 | 77 | 284 | 0.0 | 0.0 | 0.00 | 0.00 | 0.00 | 82 | 1009.6 |
| 20260905230011 | 78 | 284 | 0.0 | 0.0 | 0.00 | 0.00 | 0.00 | 80 | 1009.6 |
| 20260905225544 | 78 | 284 | 0.0 | 0.0 | 0.00 | 0.00 | 0.00 | 79 | 1009.5 |
| 20260905225015 | 78 | 284 | 0.0 | 0.0 | 0.00 | 0.00 | 0.00 | 79 | 1009.5 |
| 20260905224605 | 78 | 284 | 0.0 | 0.0 | 0.00 | 0.00 | 0.00 | 78 | 1009.4 |
| 20260905224003 | 79 | 284 | 0.0 | 0.0 | 0.00 | 0.00 | 0.00 | 77 | 1009.4 |
| 20260905223538 | 79 | 284 | 0.0 | 0.0 | 0.00 | 0.00 | 0.00 | 77 | 1009.4 |
| 20260905223011 | 79 | 284 | 0.0 | 0.0 | 0.00 | 0.00 | 0.00 | 77 | 1009.3 |
| 20260905222543 | 78 | 284 | 0.0 | 2.0 | 0.00 | 0.00 | 0.00 | 78 | 1009.2 |
| 20260905222014 | 78 | 284 | 0.0 | 2.0 | 0.00 | 0.00 | 0.00 | 79 | 1009.2 |
| 20260905221548 | 78 | 292 | 0.0 | 3.0 | 0.00 | 0.00 | 0.00 | 80 | 1009.2 |
| 20260905221028 | 78 | 311 | 2.0 | 4.0 | 0.00 | 0.00 | 0.00 | 79 | 1009.2 |
| 20260905220557 | 78 | 286 | 2.0 | 4.0 | 0.00 | 0.00 | 0.00 | 78 | 1009.2 |
| 20260905220500 | 78 | 263 | 2.0 | 4.0 | 0.00 | 0.00 | 0.00 | 79 | 1009.1 |
| 20260905220029 | 78 | 301 | 0.0 | 3.0 | 0.00 | 0.00 | 0.00 | 80 | 1009.1 |
| 20260905215504 | 78 | 293 | 0.0 | 3.0 | 0.00 | 0.00 | 0.00 | 79 | 1009.0 |
| 20260905215036 | 78 | 286 | 0.0 | 3.0 | 0.00 | 0.00 | 0.00 | 79 | 1008.9 |
| 20260905214509 | 78 | 146 | 0.0 | 2.0 | 0.00 | 0.00 | 0.00 | 80 | 1009.0 |
| 20260905214045 | 77 | 146 | 1.0 | 2.0 | 0.00 | 0.00 | 0.00 | 79 | 1009.0 |
| 20260905213515 | 76 | 138 | 0.0 | 1.0 | 0.00 | 0.00 | 0.00 | 82 | 1009.0 |
| 20260905213049 | 76 | 138 | 0.0 | 2.0 | 0.00 | 0.00 | 0.00 | 85 | 1009.0 |
| 20260905212517 | 75 | 138 | 0.0 | 2.0 | 0.00 | 0.00 | 0.00 | 85 | 1009.0 |
| 20260905212047 | 75 | 156 | 0.0 | 1.0 | 0.00 | 0.00 | 0.00 | 85 | 1008.9 |
| 20260905211520 | 75 | 277 | 0.0 | 1.0 | 0.00 | 0.00 | 0.00 | 86 | 1008.8 |
| 20260905211039 | 75 | 277 | 0.0 | 1.0 | 0.00 | 0.00 | 0.00 | 87 | 1008.7 |
| 20260905210508 | 75 | 277 | 0.0 | 3.0 | 0.00 | 0.00 | 0.00 | 89 | 1008.6 |
| 20260905210043 | 75 | 277 | 1.0 | 4.0 | 0.00 | 0.00 | 0.00 | 88 | 1008.6 |
| 20260905205514 | 75 | 138 | 1.0 | 4.0 | 0.00 | 0.00 | 0.00 | 85 | 1008.6 |
| 20260905205049 | 76 | 159 | 1.0 | 6.0 | 0.00 | 0.00 | 0.00 | 84 | 1008.5 |
| 20260905204519 | 76 | 138 | 2.0 | 6.0 | 0.00 | 0.00 | 0.00 | 85 | 1008.4 |
| 20260905204052 | 76 | 189 | 2.0 | 5.0 | 0.00 | 0.00 | 0.00 | 85 | 1008.5 |
| 20260905203524 | 76 | 133 | 1.0 | 2.0 | 0.00 | 0.00 | 0.00 | 85 | 1008.6 |
| 20260905203054 | 76 | 77 | 0.0 | 3.0 | 0.00 | 0.14 | 0.00 | 84 | 1008.6 |
| 20260905202526 | 76 | 98 | 1.0 | 4.0 | 0.00 | 0.14 | 0.00 | 84 | 1008.8 |
| 20260905202044 | 76 | 79 | 1.0 | 5.0 | 0.00 | 0.14 | 0.00 | 83 | 1008.8 |
| 20260905201524 | 76 | 118 | 3.0 | 5.0 | 0.00 | 0.14 | 0.00 | 83 | 1008.6 |
| 20260905201052 | 76 | 148 | 1.0 | 4.0 | 0.00 | 0.14 | 0.00 | 83 | 1008.8 |
| 20260905200518 | 76 | 117 | 2.0 | 4.0 | 0.00 | 0.14 | 0.00 | 83 | 1008.8 |
| 20260905200052 | 76 | 163 | 2.0 | 4.0 | 0.00 | 0.14 | 0.00 | 82 | 1008.8 |
| 20260905195529 | 77 | 168 | 2.0 | 8.0 | 0.00 | 0.14 | 0.00 | 82 | 1008.9 |
| 20260905195044 | 77 | 133 | 3.0 | 9.0 | 0.00 | 0.14 | 0.00 | 82 | 1009.0 |
| 20260905194514 | 77 | 94 | 3.0 | 10.0 | 0.00 | 0.14 | 0.00 | 81 | 1008.9 |
| 20260905194053 | 77 | 152 | 2.0 | 6.0 | 0.00 | 0.14 | 0.00 | 81 | 1009.1 |
| 20260905193520 | 77 | 146 | 2.0 | 7.0 | 0.00 | 0.14 | 0.00 | 80 | 1009.0 |
| 20260905193038 | 77 | 147 | 3.0 | 6.0 | 0.00 | 0.14 | 0.00 | 80 | 1009.1 |
| 20260905192558 | 78 | 121 | 1.0 | 5.0 | 0.00 | 0.14 | 0.00 | 82 | 1009.0 |
| 20260905192035 | 78 | 187 | 1.0 | 4.0 | 0.00 | 0.14 | 0.00 | 82 | 1009.0 |
| 20260905191508 | 78 | 209 | 1.0 | 8.0 | 0.00 | 0.14 | 0.00 | 81 | 1009.2 |
| 20260905191040 | 78 | 115 | 4.0 | 8.0 | 0.00 | 0.14 | 0.00 | 80 | 1009.1 |
| 20260905190514 | 78 | 138 | 0.0 | 3.0 | 0.00 | 0.14 | 0.00 | 79 | 1009.0 |
| 20260905190100 | 79 | 11 | 0.0 | 3.0 | 0.00 | 0.14 | 0.00 | 79 | 1008.9 |
| 20260905185521 | 78 | 302 | 1.0 | 4.0 | 0.00 | 0.14 | 0.00 | 79 | 1009.0 |
| 20260905185058 | 78 | 191 | 0.0 | 5.0 | 0.00 | 0.14 | 0.00 | 79 | 1009.0 |
| 20260905184525 | 78 | 191 | 3.0 | 5.0 | 0.00 | 0.14 | 0.00 | 79 | 1009.1 |
| 20260905184059 | 78 | 198 | 2.0 | 4.0 | 0.00 | 0.14 | 0.00 | 83 | 1009.1 |
| 20260905183530 | 78 | 128 | 0.0 | 5.0 | 0.00 | 0.14 | 0.00 | 83 | 1009.3 |
| 20260905183044 | 78 | 115 | 2.0 | 5.0 | 0.00 | 0.14 | 0.00 | 82 | 1009.3 |
| 20260905182517 | 78 | 109 | 2.0 | 4.0 | 0.00 | 0.14 | 0.00 | 82 | 1009.3 |
| 20260905182053 | 78 | 148 | 2.0 | 4.0 | 0.00 | 0.14 | 0.00 | 82 | 1009.3 |
| 20260905181523 | 78 | 233 | 1.0 | 4.0 | 0.00 | 0.14 | 0.00 | 83 | 1009.4 |
| 20260905181056 | 77 | 232 | 0.0 | 6.0 | 0.00 | 0.14 | 0.00 | 83 | 1009.5 |
| 20260905180532 | 77 | 207 | 2.0 | 6.0 | 0.00 | 0.14 | 0.00 | 83 | 1009.5 |
| 20260905180046 | 77 | 248 | 0.0 | 2.0 | 0.00 | 0.14 | 0.00 | 83 | 1009.6 |
| 20260905175520 | 77 | 291 | 0.0 | 2.0 | 0.00 | 0.14 | 0.00 | 84 | 1009.6 |
| 20260905175052 | 77 | 283 | 0.0 | 2.0 | 0.00 | 0.14 | 0.00 | 84 | 1009.8 |
| 20260905174543 | 77 | 283 | 0.0 | 3.0 | 0.00 | 0.14 | 0.00 | 85 | 1009.8 |
| 20260905174100 | 76 | 238 | 1.0 | 3.0 | 0.00 | 0.14 | 0.00 | 84 | 1009.8 |
| 20260905174002 | 76 | 208 | 0.0 | 3.0 | 0.00 | 0.14 | 0.00 | 85 | 1009.8 |
| 20260905173540 | 76 | 213 | 0.0 | 3.0 | 0.00 | 0.14 | 0.00 | 84 | 1009.8 |
| 20260905173054 | 76 | 213 | 0.0 | 3.0 | 0.00 | 0.14 | 0.00 | 85 | 1010.0 |
| 20260905172526 | 76 | 229 | 2.0 | 4.0 | 0.00 | 0.14 | 0.00 | 85 | 1010.1 |
| 20260905172101 | 76 | 228 | 1.0 | 4.0 | 0.00 | 0.14 | 0.00 | 84 | 1010.1 |
| 20260905172004 | 76 | 220 | 0.0 | 4.0 | 0.00 | 0.14 | 0.00 | 85 | 1010.1 |
| 20260905171537 | 76 | 250 | 2.0 | 4.0 | 0.00 | 0.14 | 0.00 | 85 | 1010.1 |
| 20260905171010 | 76 | 302 | 2.0 | 4.0 | 0.00 | 0.14 | 0.00 | 85 | 1010.2 |
| 20260905170544 | 76 | 274 | 0.0 | 3.0 | 0.00 | 0.14 | 0.00 | 85 | 1010.2 |
| 20260905170013 | 77 | 292 | 1.0 | 3.0 | 0.00 | 0.14 | 0.00 | 85 | 1010.3 |
| 20260905165527 | 77 | 217 | 0.0 | 2.0 | 0.00 | 0.14 | 0.00 | 85 | 1010.3 |
| 20260905165104 | 76 | 201 | 0.0 | 2.0 | 0.00 | 0.14 | 0.00 | 85 | 1010.4 |
| 20260905165002 | 76 | 286 | 0.0 | 2.0 | 0.00 | 0.14 | 0.00 | 85 | 1010.4 |
| 20260905164540 | 76 | 296 | 1.0 | 2.0 | 0.00 | 0.14 | 0.00 | 86 | 1010.3 |
| 20260905164013 | 76 | 269 | 0.0 | 3.0 | 0.00 | 0.14 | 0.00 | 87 | 1010.4 |
| 20260905163544 | 76 | 227 | 1.0 | 3.0 | 0.00 | 0.14 | 0.00 | 85 | 1010.4 |
| 20260905163004 | 75 | 17 | 0.0 | 3.0 | 0.00 | 0.14 | 0.00 | 85 | 1010.5 |
| 20260905162538 | 75 | 17 | 0.0 | 3.0 | 0.00 | 0.14 | 0.00 | 85 | 1010.6 |
| 20260905162007 | 75 | 54 | 0.0 | 2.0 | 0.00 | 0.14 | 0.00 | 86 | 1010.6 |
| 20260905161542 | 75 | 345 | 0.0 | 2.0 | 0.00 | 0.14 | 0.00 | 88 | 1010.7 |
| 20260905161012 | 75 | 313 | 1.0 | 2.0 | 0.00 | 0.14 | 0.00 | 86 | 1010.9 |
| 20260905160529 | 75 | 313 | 0.0 | 2.0 | 0.00 | 0.14 | 0.00 | 86 | 1010.9 |
| 20260905160059 | 75 | 95 | 0.0 | 3.0 | 0.00 | 0.14 | 0.00 | 86 | 1011.0 |
| 20260905155525 | 75 | 95 | 1.0 | 3.0 | 0.00 | 0.14 | 0.00 | 85 | 1011.1 |
| 20260905155101 | 75 | 100 | 0.0 | 2.0 | 0.00 | 0.14 | 0.00 | 86 | 1011.1 |
| 20260905155002 | 75 | 64 | 0.0 | 2.0 | 0.00 | 0.14 | 0.00 | 86 | 1011.1 |
| 20260905154537 | 75 | 72 | 0.0 | 4.0 | 0.00 | 0.14 | 0.00 | 86 | 1011.1 |
| 20260905154008 | 75 | 61 | 2.0 | 4.0 | 0.00 | 0.14 | 0.00 | 86 | 1011.0 |
| 20260905153541 | 75 | 92 | 2.0 | 4.0 | 0.00 | 0.14 | 0.00 | 86 | 1011.1 |
| 20260905153012 | 75 | 104 | 3.0 | 5.0 | 0.00 | 0.14 | 0.00 | 86 | 1011.1 |